Time,TemperatureF,DewpointF,PressureIn,WindDirection,WindDirectionDegrees,WindSpeedMPH,WindSpeedGustMPH,Humidity,HourlyPrecipIn,Conditions,Clouds,dailyrainin,SoftwareType,DateUTC
2013-03-07 00:04:00,23.7,22.0,30.28,North,5,3.0,22.0,93,0.00,,,0.00,weatherlink.com 1.10,2013-03-07 05:04:00,
2013-03-07 00:19:00,23.6,22.0,30.28,NE,36,4.0,15.0,93,0.00,,,0.00,weatherlink.com 1.10,2013-03-07 05:19:00,
2013-03-07 00:34:00,23.6,22.0,30.27,NW,321,10.0,19.0,93,0.00,,,0.00,weatherlink.com 1.10,2013-03-07 05:34:00,
2013-03-07 00:49:00,23.5,22.0,30.27,NNE,22,7.0,24.0,93,0.00,,,0.00,weatherlink.com 1.10,2013-03-07 05:49:00,
2013-03-07 01:06:00,23.6,22.0,30.28,NW,308,6.0,24.0,93,0.00,,,0.00,weatherlink.com 1.10,2013-03-07 06:06:00,
2013-03-07 01:19:00,23.5,22.0,30.28,NNW,335,9.0,25.0,93,0.00,,,0.00,weatherlink.com 1.10,2013-03-07 06:19:00,
2013-03-07 01:34:00,23.5,22.0,30.28,NNW,339,14.0,26.0,93,0.00,,,0.00,weatherlink.com 1.10,2013-03-07 06:34:00,
2013-03-07 01:49:00,23.5,22.0,30.28,NNW,341,13.0,20.0,93,0.00,,,0.00,weatherlink.com 1.10,2013-03-07 06:49:00,
2013-03-07 02:04:00,23.5,22.0,30.27,NNW,344,13.0,22.0,93,0.00,,,0.00,weatherlink.com 1.10,2013-03-07 07:04:00,
2013-03-07 02:20:00,23.4,22.0,30.27,North,5,10.0,23.0,93,0.00,,,0.00,weatherlink.com 1.10,2013-03-07 07:20:00,
2013-03-07 02:34:00,23.4,22.0,30.26,North,355,11.0,29.0,93,0.00,,,0.00,weatherlink.com 1.10,2013-03-07 07:34:00,
2013-03-07 02:49:00,23.4,22.0,30.26,North,360,6.0,22.0,93,0.00,,,0.00,weatherlink.com 1.10,2013-03-07 07:49:00,
2013-03-07 03:04:00,23.6,22.0,30.27,WNW,297,12.0,22.0,93,0.00,,,0.00,weatherlink.com 1.10,2013-03-07 08:04:00,
2013-03-07 03:19:00,23.6,22.0,30.27,NNW,339,9.0,20.0,93,0.00,,,0.00,weatherlink.com 1.10,2013-03-07 08:19:00,
2013-03-07 03:34:00,23.6,22.0,30.27,NNW,348,10.0,26.0,93,0.00,,,0.00,weatherlink.com 1.10,2013-03-07 08:34:00,
2013-03-07 03:49:00,23.6,22.0,30.28,NNW,343,9.0,21.0,93,0.00,,,0.00,weatherlink.com 1.10,2013-03-07 08:49:00,
2013-03-07 04:04:00,23.5,22.0,30.29,NNE,22,9.0,27.0,93,0.00,,,0.00,weatherlink.com 1.10,2013-03-07 09:04:00,
2013-03-07 04:19:00,23.5,22.0,30.29,NNW,340,8.0,25.0,93,0.00,,,0.00,weatherlink.com 1.10,2013-03-07 09:19:00,
2013-03-07 04:34:00,23.5,22.0,30.30,North,355,9.0,22.0,93,0.00,,,0.00,weatherlink.com 1.10,2013-03-07 09:34:00,
2013-03-07 04:49:00,23.6,22.0,30.30,NNW,340,10.0,23.0,93,0.00,,,0.00,weatherlink.com 1.10,2013-03-07 09:49:00,
2013-03-07 05:04:00,23.6,22.0,30.30,NW,325,11.0,28.0,93,0.00,,,0.00,weatherlink.com 1.10,2013-03-07 10:04:00,
2013-03-07 05:19:00,23.4,22.0,30.32,NNW,347,6.0,19.0,93,0.00,,,0.00,weatherlink.com 1.10,2013-03-07 10:19:00,
2013-03-07 05:34:00,23.4,22.0,30.32,NNW,346,7.0,28.0,93,0.00,,,0.00,weatherlink.com 1.10,2013-03-07 10:34:00,
2013-03-07 06:19:00,23.2,21.0,30.33,NNW,340,13.0,26.0,92,0.00,,,0.00,weatherlink.com 1.10,2013-03-07 11:19:00,
2013-03-07 06:34:00,23.2,21.0,30.33,North,350,10.0,22.0,92,0.00,,,0.00,weatherlink.com 1.10,2013-03-07 11:34:00,
2013-03-07 06:49:00,23.3,21.0,30.33,NNW,330,15.0,22.0,92,0.00,,,0.00,weatherlink.com 1.10,2013-03-07 11:49:00,
2013-03-07 07:04:00,23.4,22.0,30.34,NW,319,13.0,28.0,92,0.00,,,0.00,weatherlink.com 1.10,2013-03-07 12:04:00,
2013-03-07 07:19:00,23.5,22.0,30.35,NNW,340,15.0,29.0,92,0.00,,,0.00,weatherlink.com 1.10,2013-03-07 12:19:00,
2013-03-07 07:34:00,23.5,22.0,30.35,NNW,348,15.0,28.0,92,0.00,,,0.00,weatherlink.com 1.10,2013-03-07 12:34:00,
2013-03-07 07:49:00,23.6,22.0,30.36,North,355,14.0,22.0,92,0.00,,,0.00,weatherlink.com 1.10,2013-03-07 12:49:00,
2013-03-07 08:04:00,23.8,22.0,30.36,NNW,339,12.0,26.0,91,0.00,,,0.00,weatherlink.com 1.10,2013-03-07 13:04:00,
2013-03-07 08:19:00,24.1,22.0,30.37,NNW,346,12.0,30.0,91,0.00,,,0.00,weatherlink.com 1.10,2013-03-07 13:19:00,
2013-03-07 08:34:00,24.6,22.0,30.37,NNW,339,13.0,24.0,91,0.00,,,0.00,weatherlink.com 1.10,2013-03-07 13:34:00,
2013-03-07 08:49:00,24.5,22.0,30.37,NNW,327,11.0,25.0,90,0.00,,,0.00,weatherlink.com 1.10,2013-03-07 13:49:00,
2013-03-07 09:04:00,24.8,22.0,30.37,North,360,12.0,20.0,89,0.00,,,0.00,weatherlink.com 1.10,2013-03-07 14:04:00,
2013-03-07 09:19:00,24.9,22.0,30.38,NW,314,9.0,26.0,89,0.00,,,0.00,weatherlink.com 1.10,2013-03-07 14:19:00,
2013-03-07 09:34:00,25.2,22.0,30.37,NNW,348,12.0,23.0,89,0.00,,,0.00,weatherlink.com 1.10,2013-03-07 14:34:00,
2013-03-07 09:49:00,25.3,22.0,30.37,NNW,339,7.0,25.0,88,0.00,,,0.00,weatherlink.com 1.10,2013-03-07 14:49:00,
2013-03-07 10:04:00,25.6,23.0,30.37,NW,324,9.0,25.0,88,0.00,,,0.00,weatherlink.com 1.10,2013-03-07 15:04:00,
2013-03-07 10:20:00,26.0,23.0,30.38,North,9,11.0,22.0,88,0.00,,,0.00,weatherlink.com 1.10,2013-03-07 15:20:00,
2013-03-07 10:35:00,26.3,23.0,30.39,NNW,331,11.0,28.0,88,0.00,,,0.00,weatherlink.com 1.10,2013-03-07 15:35:00,
2013-03-07 10:50:00,26.7,23.0,30.38,NNW,348,13.0,24.0,87,0.00,,,0.00,weatherlink.com 1.10,2013-03-07 15:50:00,
2013-03-07 11:05:00,27.0,24.0,30.38,North,360,17.0,19.0,87,0.00,,,0.00,weatherlink.com 1.10,2013-03-07 16:05:00,
2013-03-07 11:20:00,27.5,24.0,30.39,NW,323,8.0,21.0,87,0.00,,,0.00,weatherlink.com 1.10,2013-03-07 16:20:00,
2013-03-07 11:35:00,28.7,25.0,30.39,NNW,337,11.0,25.0,86,0.00,,,0.00,weatherlink.com 1.10,2013-03-07 16:35:00,
2013-03-07 11:50:00,30.2,26.0,30.39,NNW,333,14.0,18.0,84,0.00,,,0.00,weatherlink.com 1.10,2013-03-07 16:50:00,
2013-03-07 12:06:00,30.7,27.0,30.39,NNE,23,7.0,18.0,85,0.00,,,0.00,weatherlink.com 1.10,2013-03-07 17:06:00,
2013-03-07 12:21:00,30.7,26.0,30.39,North,349,5.0,24.0,83,0.00,,,0.00,weatherlink.com 1.10,2013-03-07 17:21:00,
2013-03-07 12:35:00,31.4,27.0,30.39,NNW,340,16.0,20.0,83,0.00,,,0.00,weatherlink.com 1.10,2013-03-07 17:35:00,
2013-03-07 12:50:00,31.6,27.0,30.39,NNE,19,9.0,19.0,83,0.00,,,0.00,weatherlink.com 1.10,2013-03-07 17:50:00,
2013-03-07 13:05:00,32.4,28.0,30.39,NNW,347,9.0,16.0,82,0.00,,,0.00,weatherlink.com 1.10,2013-03-07 18:05:00,
2013-03-07 13:20:00,32.6,28.0,30.39,NNW,327,4.0,18.0,82,0.00,,,0.00,weatherlink.com 1.10,2013-03-07 18:20:00,
2013-03-07 13:36:00,32.9,28.0,30.39,NNE,15,6.0,18.0,81,0.00,,,0.00,weatherlink.com 1.10,2013-03-07 18:36:00,
2013-03-07 13:51:00,32.9,27.0,30.39,NNE,17,9.0,19.0,80,0.00,,,0.00,weatherlink.com 1.10,2013-03-07 18:51:00,
2013-03-07 14:06:00,32.1,27.0,30.39,NNE,22,7.0,18.0,80,0.00,,,0.00,weatherlink.com 1.10,2013-03-07 19:06:00,
2013-03-07 14:21:00,32.2,27.0,30.38,NNW,348,7.0,18.0,80,0.00,,,0.00,weatherlink.com 1.10,2013-03-07 19:21:00,
2013-03-07 14:35:00,32.0,27.0,30.39,NNW,339,9.0,18.0,80,0.00,,,0.00,weatherlink.com 1.10,2013-03-07 19:35:00,
2013-03-07 14:51:00,31.7,26.0,30.38,NNW,347,7.0,16.0,79,0.00,,,0.00,weatherlink.com 1.10,2013-03-07 19:51:00,
2013-03-07 15:05:00,31.6,26.0,30.38,North,351,7.0,21.0,79,0.00,,,0.00,weatherlink.com 1.10,2013-03-07 20:05:00,
2013-03-07 15:21:00,31.6,26.0,30.38,NW,323,11.0,17.0,79,0.00,,,0.00,weatherlink.com 1.10,2013-03-07 20:21:00,
2013-03-07 15:36:00,31.4,26.0,30.38,North,5,8.0,18.0,79,0.00,,,0.00,weatherlink.com 1.10,2013-03-07 20:36:00,
2013-03-07 15:51:00,31.2,26.0,30.38,North,360,5.0,23.0,81,0.00,,,0.00,weatherlink.com 1.10,2013-03-07 20:51:00,
2013-03-07 16:06:00,30.9,25.0,30.38,NW,317,6.0,19.0,79,0.00,,,0.00,weatherlink.com 1.10,2013-03-07 21:06:00,
2013-03-07 16:21:00,30.6,25.0,30.38,NW,313,7.0,20.0,81,0.00,,,0.00,weatherlink.com 1.10,2013-03-07 21:21:00,
2013-03-07 16:36:00,30.1,25.0,30.39,North,9,9.0,19.0,81,0.00,,,0.00,weatherlink.com 1.10,2013-03-07 21:36:00,
2013-03-07 16:51:00,29.5,25.0,30.39,NW,304,9.0,18.0,82,0.00,,,0.00,weatherlink.com 1.10,2013-03-07 21:51:00,
2013-03-07 17:06:00,29.2,25.0,30.39,North,5,8.0,22.0,83,0.00,,,0.00,weatherlink.com 1.10,2013-03-07 22:06:00,
2013-03-07 17:21:00,28.8,25.0,30.39,North,355,11.0,21.0,84,0.00,,,0.00,weatherlink.com 1.10,2013-03-07 22:21:00,
2013-03-07 17:51:00,27.4,24.0,30.39,NNW,330,8.0,21.0,86,0.00,,,0.00,weatherlink.com 1.10,2013-03-07 22:51:00,
2013-03-07 18:06:00,26.9,24.0,30.39,NNW,344,7.0,18.0,87,0.00,,,0.00,weatherlink.com 1.10,2013-03-07 23:06:00,
2013-03-07 18:21:00,26.3,23.0,30.39,NNW,346,11.0,21.0,88,0.00,,,0.00,weatherlink.com 1.10,2013-03-07 23:21:00,
2013-03-07 18:36:00,26.1,23.0,30.40,NNW,338,8.0,20.0,88,0.00,,,0.00,weatherlink.com 1.10,2013-03-07 23:36:00,
2013-03-07 18:51:00,25.7,23.0,30.40,NNE,20,8.0,16.0,88,0.00,,,0.00,weatherlink.com 1.10,2013-03-07 23:51:00,
2013-03-07 19:07:00,25.5,23.0,30.41,NNW,344,9.0,21.0,88,0.00,,,0.00,weatherlink.com 1.10,2013-03-08 00:07:00,
2013-03-07 19:22:00,25.3,22.0,30.41,NNW,348,10.0,23.0,88,0.00,,,0.00,weatherlink.com 1.10,2013-03-08 00:22:00,
2013-03-07 19:37:00,25.2,22.0,30.41,North,350,6.0,18.0,88,0.00,,,0.00,weatherlink.com 1.10,2013-03-08 00:37:00,
2013-03-07 19:52:00,25.1,22.0,30.42,NNW,339,9.0,25.0,88,0.00,,,0.00,weatherlink.com 1.10,2013-03-08 00:52:00,
2013-03-07 20:07:00,25.1,22.0,30.42,NW,306,6.0,23.0,88,0.00,,,0.00,weatherlink.com 1.10,2013-03-08 01:07:00,
2013-03-07 20:22:00,24.9,22.0,30.42,North,355,10.0,20.0,88,0.00,,,0.00,weatherlink.com 1.10,2013-03-08 01:22:00,
2013-03-07 20:37:00,24.7,21.0,30.42,NW,306,11.0,20.0,87,0.00,,,0.00,weatherlink.com 1.10,2013-03-08 01:37:00,
2013-03-07 20:52:00,24.5,21.0,30.42,North,5,5.0,19.0,87,0.00,,,0.00,weatherlink.com 1.10,2013-03-08 01:52:00,
2013-03-07 21:07:00,24.4,21.0,30.42,North,355,11.0,19.0,87,0.00,,,0.00,weatherlink.com 1.10,2013-03-08 02:07:00,
2013-03-07 21:22:00,24.3,21.0,30.42,NNW,346,11.0,18.0,87,0.00,,,0.00,weatherlink.com 1.10,2013-03-08 02:22:00,
2013-03-07 21:37:00,24.3,21.0,30.42,NNW,340,11.0,18.0,87,0.00,,,0.00,weatherlink.com 1.10,2013-03-08 02:37:00,
2013-03-07 21:51:00,24.2,21.0,30.42,North,355,12.0,28.0,87,0.00,,,0.00,weatherlink.com 1.10,2013-03-08 02:51:00,
2013-03-07 22:07:00,24.2,21.0,30.41,North,5,13.0,20.0,86,0.00,,,0.00,weatherlink.com 1.10,2013-03-08 03:07:00,
2013-03-07 22:22:00,24.2,21.0,30.42,North,355,10.0,21.0,86,0.00,,,0.00,weatherlink.com 1.10,2013-03-08 03:22:00,
2013-03-07 22:37:00,23.9,21.0,30.41,NE,34,9.0,14.0,87,0.00,,,0.00,weatherlink.com 1.10,2013-03-08 03:37:00,
2013-03-07 22:52:00,23.9,21.0,30.42,North,355,6.0,20.0,87,0.00,,,0.00,weatherlink.com 1.10,2013-03-08 03:52:00,
2013-03-07 23:06:00,23.9,21.0,30.42,East,92,11.0,20.0,87,0.00,,,0.00,weatherlink.com 1.10,2013-03-08 04:06:00,
2013-03-07 23:21:00,23.8,21.0,30.43,NNW,341,6.0,24.0,87,0.00,,,0.00,weatherlink.com 1.10,2013-03-08 04:21:00,
2013-03-07 23:36:00,23.8,21.0,30.43,NW,308,6.0,22.0,87,0.00,,,0.00,weatherlink.com 1.10,2013-03-08 04:36:00,
2013-03-07 23:51:00,23.8,21.0,30.42,NE,45,22.0,22.0,87,0.00,,,0.00,weatherlink.com 1.10,2013-03-08 04:51:00,